Theta_e
301 301 301 301 301 300 300 301 300 301 301 301 302 306 306 310 311 310 310 310 310 310 310 310 310 311 309 309 310 311 305 305 306 307 306 308 306 308 309 309 309 310 310 310 310
301 301 301 301 300 300 300 300 300 301 301 301 304 307 306 307 310 310 310 310 310 310 310 310 310 309 309 309 309 307 303 306 308 307 306 308 308 308 308 309 310 310 310 309 310
301 301 300 300 300 300 300 300 300 300 301 301 305 306 307 308 311 310 310 310 310 310 310 310 310 310 309 308 308 309 306 308 309 310 308 308 308 310 310 309 309 309 309 308 307
300 300 300 300 300 300 300 300 300 300 301 301 305 307 308 311 315 309 310 310 310 310 311 311 310 309 306 306 308 308 309 310 309 310 309 308 309 309 310 310 310 309 308 306 306
300 300 300 300 300 300 300 300 300 300 301 302 305 306 310 310 308 309 310 310 310 310 310 311 309 308 306 308 308 307 309 309 309 310 309 309 310 309 311 311 310 309 307 307 307
300 300 300 300 300 300 300 300 301 301 301 303 306 306 310 311 308 309 310 309 309 309 309 309 308 308 309 308 307 308 309 309 309 311 310 310 310 311 311 311 309 309 307 306 306
300 300 300 300 300 300 300 300 301 301 301 306 306 308 309 309 307 308 309 309 310 309 309 308 310 310 310 309 308 308 309 307 310 311 311 310 311 310 310 310 308 308 308 306 305
300 300 300 300 300 300 300 301 301 301 302 305 306 307 306 306 307 308 308 309 309 309 308 309 309 309 309 308 308 309 309 311 310 310 311 311 312 310 310 309 307 308 308 306 307
300 300 300 299 299 300 301 301 301 301 303 304 305 309 307 306 307 308 308 309 309 310 310 311 312 311 311 312 309 307 309 307 312 310 309 310 310 310 310 309 307 307 307 307 307
300 300 299 299 299 301 300 300 301 303 304 305 305 307 305 307 306 307 309 308 308 311 311 313 313 307 305 307 308 308 307 309 312 311 309 310 309 307 310 310 307 306 307 307 309
300 299 299 299 299 300 300 301 302 304 302 305 305 306 306 306 307 307 309 309 312 311 310 312 307 305 307 307 307 303 304 308 307 310 310 309 307 307 310 310 307 305 305 306 308
300 299 299 299 300 300 300 302 305 304 302 303 304 305 306 306 308 307 309 311 311 309 310 307 307 308 309 309 309 304 309 303 306 309 309 305 307 310 311 310 307 305 304 305 307
300 299 299 299 299 300 300 301 301 301 305 303 304 305 305 307 307 307 310 310 310 310 310 309 310 310 311 311 310 311 311 308 308 309 311 310 308 308 311 311 307 304 303 304 305
300 300 299 299 299 300 301 301 300 301 303 304 302 304 305 307 307 305 307 309 309 309 308 309 309 310 311 311 308 310 308 308 309 309 308 308 306 310 313 310 306 304 303 302 303
301 300 300 298 303 301 302 299 299 302 309 304 303 304 305 307 307 306 306 309 309 308 309 309 309 310 310 308 307 310 308 308 310 311 311 307 308 309 312 311 306 304 303 302 302
301 301 301 298 302 302 299 298 300 303 307 300 303 305 305 305 306 306 306 307 308 308 306 307 307 307 306 306 306 307 308 309 311 308 307 306 308 308 311 312 309 304 303 302 302
304 304 302 298 301 301 298 299 302 302 301 298 302 305 305 305 306 307 307 306 302 301 302 307 308 306 306 307 307 307 308 309 308 306 308 305 307 307 311 310 307 303 303 302 302
307 306 303 299 300 299 298 302 298 299 297 300 303 304 303 304 305 307 306 302 306 306 300 306 308 307 305 306 307 307 307 305 306 309 304 305 307 305 310 310 306 304 304 302 301
307 306 303 299 299 298 303 300 302 299 302 301 303 302 302 303 303 306 304 304 305 306 306 303 305 305 306 306 306 308 305 306 307 297 306 306 306 306 308 308 307 304 304 303 301
307 305 303 298 297 298 302 302 298 303 301 302 301 300 295 298 302 303 305 304 305 305 305 306 305 305 306 306 306 308 306 308 305 300 304 305 305 302 306 306 306 305 304 303 301
307 304 301 297 297 301 300 295 296 298 301 302 303 297 302 300 298 303 302 303 304 304 305 304 305 304 305 306 306 307 308 305 304 305 308 306 304 302 305 304 306 306 305 304 302
305 299 297 296 299 299 295 295 298 297 300 299 301 301 301 301 304 301 304 303 304 304 305 305 305 303 307 304 304 306 307 306 305 308 303 305 302 305 305 304 308 308 306 305 303
302 297 296 297 299 291 292 291 296 297 298 299 299 301 302 301 300 303 301 300 302 304 304 303 300 298 306 305 304 304 305 306 304 302 305 305 304 304 305 306 309 308 306 305 303
303 297 296 296 299 295 291 292 293 297 299 300 300 301 299 299 296 300 300 300 301 303 303 304 303 304 309 308 306 306 306 305 303 303 304 304 303 303 302 303 306 307 306 305 304
305 300 296 295 296 298 297 295 294 294 297 300 299 299 299 297 299 298 298 299 300 303 302 298 295 296 300 301 302 302 303 304 305 303 303 305 303 303 302 301 305 308 306 305 304
303 298 296 295 297 299 299 294 297 296 296 296 298 298 300 298 301 300 299 298 299 301 301 299 295 291 293 297 299 301 299 300 302 303 303 304 304 303 305 304 304 306 307 305 305
306 305 301 298 297 299 299 297 297 297 298 299 298 300 299 300 300 300 300 300 299 299 294 295 291 292 299 292 293 301 297 297 299 299 302 303 303 303 303 305 305 304 306 307 306
Wind_Speed
6 6 7 7 8 8 9 9 9 10 9 9 7 5 3 9 12 10 14 17 14 8 4 8 12 8 8 7 7 3 5 3 4 5 5 14 8 10 11 17 15 18 24 33 39
6 6 6 6 7 8 8 8 9 8 9 8 7 6 3 3 7 15 16 14 10 8 5 6 11 12 6 7 7 8 4 3 4 3 4 10 8 13 8 16 13 32 30 28 31
6 6 6 6 5 6 7 8 8 8 8 7 6 5 4 3 3 9 12 12 8 7 8 7 8 6 8 8 10 6 4 4 8 7 3 6 7 9 12 6 21 28 27 33 33
7 6 5 5 5 5 6 7 7 7 6 5 3 7 5 3 2 6 8 10 9 8 6 10 5 4 5 5 5 6 11 8 2 3 1 1 7 10 17 12 23 24 27 29 26
8 7 6 5 4 4 5 6 6 6 5 4 3 1 2 4 5 4 6 9 10 10 7 10 13 6 4 5 10 7 3 3 1 2 2 2 7 2 14 18 21 22 23 23 23
9 8 7 5 4 3 4 4 5 5 4 4 2 2 2 1 2 2 5 8 11 14 9 8 10 12 11 6 6 5 6 2 3 2 2 4 5 5 8 20 21 22 25 27 25
10 9 7 6 5 3 3 4 4 3 3 4 4 4 3 3 2 1 1 6 10 13 11 10 8 4 6 4 5 5 2 1 2 2 2 5 2 4 13 22 24 27 30 31 30
11 9 8 6 4 2 2 3 2 2 1 3 2 1 3 3 2 2 1 4 8 9 12 12 12 14 6 7 3 1 4 3 3 7 5 4 6 4 16 22 25 28 33 33 33
12 10 9 7 5 3 2 2 1 1 1 3 2 1 2 2 2 4 4 4 5 8 8 8 9 7 4 3 4 6 1 3 2 5 5 4 5 6 15 20 20 29 33 33 36
14 12 10 8 5 4 1 2 2 2 4 4 4 1 2 1 3 4 6 5 4 4 5 5 5 4 5 5 2 2 3 4 3 5 5 3 5 7 12 15 15 25 33 35 36
15 13 11 9 7 4 4 5 3 1 1 1 3 3 3 4 5 5 4 5 5 4 3 5 7 3 3 4 4 6 4 2 5 5 4 2 5 8 9 12 15 21 28 30 32
16 15 12 9 8 6 7 3 2 2 3 3 4 3 4 4 2 5 3 3 2 2 2 6 4 4 4 5 5 3 2 4 5 6 2 2 6 4 3 6 12 19 24 31 35
17 16 12 10 8 7 7 5 3 5 2 1 3 2 3 3 2 2 3 2 3 4 3 5 4 4 1 1 1 3 1 1 3 5 2 1 5 5 1 8 12 21 20 27 30
19 18 14 11 7 8 6 7 6 5 4 1 2 1 3 5 3 3 3 2 2 4 5 5 3 1 2 1 2 2 1 3 4 4 1 2 3 3 2 3 7 17 21 23 26
21 20 16 14 7 11 6 9 10 4 2 1 3 3 4 3 4 2 3 3 3 3 4 2 4 2 1 2 1 2 1 2 2 2 2 7 3 6 1 3 6 11 17 18 19
23 21 17 17 10 9 11 12 9 6 5 3 3 4 3 2 1 3 3 3 4 3 5 3 1 2 0 3 2 1 2 2 2 2 3 5 3 4 1 2 2 5 12 13 16
24 20 20 18 13 13 16 13 5 4 5 4 4 4 3 3 2 2 3 2 3 5 1 2 1 2 2 2 2 1 2 3 5 4 3 4 2 7 2 3 2 5 7 10 14
24 22 21 19 15 17 20 4 3 3 5 4 3 4 4 5 1 2 4 1 2 3 3 5 4 1 3 2 2 3 2 4 4 0 4 3 3 4 3 7 4 5 6 7 10
27 23 20 20 17 23 14 2 8 7 6 9 3 5 1 2 4 3 7 5 5 4 5 5 2 1 2 0 3 2 2 2 5 3 3 3 3 3 0 3 5 5 3 3 6
33 25 21 21 22 24 4 6 4 5 5 3 5 4 6 5 4 4 6 3 4 1 1 4 5 1 1 1 2 3 1 3 3 2 1 4 5 4 6 8 7 7 7 5 2
33 13 18 23 25 14 4 7 4 7 4 6 5 4 4 7 6 6 8 1 4 4 2 4 3 4 2 3 2 1 1 2 2 2 2 2 5 5 6 8 9 14 12 10 8
27 3 26 30 8 3 3 6 5 5 4 2 3 4 6 6 5 3 6 3 2 6 5 2 4 3 2 1 0 1 1 3 4 2 2 2 5 1 2 10 18 18 16 13 10
25 7 26 33 6 3 1 1 4 5 5 6 4 3 2 6 4 4 3 2 4 1 5 2 2 3 6 4 3 3 4 3 4 3 4 3 5 1 3 1 13 19 19 17 15
17 4 7 13 5 8 6 5 4 6 5 5 5 5 4 3 4 5 3 1 4 2 5 3 2 4 5 4 3 4 4 4 5 3 2 6 6 4 7 6 8 15 21 20 18
22 7 13 8 11 7 8 9 7 6 5 8 2 4 7 4 3 3 3 3 3 3 1 4 3 2 3 3 1 4 4 8 8 5 6 4 5 6 7 8 19 21 21 22 22
21 9 11 10 26 10 12 9 13 6 9 6 5 9 7 7 8 10 8 4 5 4 3 1 2 2 4 4 2 5 7 8 6 4 9 11 17 12 17 15 16 25 26 29 28
30 23 23 17 11 13 9 9 12 14 7 6 12 7 7 3 12 20 11 14 11 7 4 4 5 3 5 4 3 7 8 12 5 4 7 7 10 3 4 4 5 14 28 31 30
Wind_Direction
297 309 322 331 334 340 345 347 353 358 1 4 16 37 118 53 51 36 37 17 18 28 35 51 53 31 55 51 40 356 58 64 27 23 304 6 18 352 340 347 349 344 331 319 312
275 291 306 317 328 334 338 347 347 357 359 4 17 29 99 75 46 36 26 13 21 33 49 58 62 38 61 24 26 49 77 83 45 38 5 344 359 347 1 360 344 330 323 318 308
253 272 289 304 322 328 336 342 345 354 359 6 21 45 84 100 82 22 17 16 31 45 58 52 77 52 57 41 17 33 96 122 48 39 359 336 357 4 33 10 329 321 327 328 319
250 258 271 292 306 320 331 337 345 349 357 6 36 63 74 46 134 18 19 19 26 43 74 49 50 61 71 49 34 91 53 74 82 341 181 349 329 347 37 338 337 335 332 334 331
253 254 257 268 288 310 328 336 344 348 349 6 43 92 63 48 79 43 26 29 30 45 95 102 67 73 91 90 61 81 129 114 287 336 95 339 344 326 11 340 355 349 344 337 342
246 254 258 263 273 300 324 337 343 344 349 8 68 93 115 95 68 43 36 35 38 45 67 95 87 98 81 62 66 120 141 140 2 41 175 354 36 32 348 351 352 353 359 352 353
233 241 248 252 267 295 322 336 339 343 8 61 102 80 73 107 46 70 49 49 51 50 74 89 96 128 101 86 103 122 82 262 354 21 314 324 15 323 357 357 354 358 2 359 2
233 236 239 240 249 271 310 323 336 350 39 160 107 33 75 89 58 43 69 59 62 69 72 82 99 80 71 112 97 107 80 51 321 17 332 12 294 342 360 2 359 357 9 6 11
230 231 233 235 236 247 291 316 7 62 96 157 145 118 71 94 37 42 61 75 81 80 68 73 73 70 68 70 28 14 69 17 353 59 16 46 297 330 1 4 360 4 12 11 17
224 224 225 225 224 230 217 174 139 114 124 132 139 167 121 7 35 53 71 71 84 73 58 47 57 67 25 54 185 251 28 343 305 330 17 342 303 315 354 3 5 10 15 16 18
217 218 220 214 214 211 169 142 140 77 191 132 144 132 147 120 66 57 90 82 73 42 79 36 67 92 125 87 112 110 112 305 258 299 3 5 297 300 338 7 21 18 13 15 16
215 215 208 210 213 201 184 182 187 149 97 96 119 134 136 120 101 54 108 61 5 106 75 27 104 142 118 139 121 103 83 293 290 262 140 348 301 307 334 7 40 31 16 16 20
211 217 204 203 207 204 198 210 214 179 84 157 170 148 142 142 103 53 115 109 64 55 48 123 180 145 222 192 56 182 251 324 262 309 280 343 323 351 106 44 48 41 31 25 26
211 212 201 194 194 201 200 209 184 161 72 222 210 122 141 146 55 73 105 95 56 127 117 103 178 226 248 70 58 144 36 2 318 24 308 130 277 299 184 43 37 37 35 29 28
211 206 198 186 186 178 174 167 163 128 13 115 153 142 139 111 138 51 92 77 88 105 92 198 165 233 314 136 90 209 320 272 265 322 8 334 65 274 142 343 26 38 39 36 38
208 200 191 188 187 168 156 152 149 50 256 148 140 152 122 154 111 112 80 80 103 83 43 108 92 58 50 310 216 344 319 264 342 55 33 287 102 290 315 263 89 39 46 40 45
203 193 195 190 181 167 157 148 51 139 1 259 176 157 176 153 135 175 130 59 139 84 351 350 178 159 119 53 356 19 40 5 6 13 212 304 40 248 183 176 147 110 60 43 46
194 194 193 188 175 169 158 65 122 228 202 236 147 119 161 161 120 143 115 8 240 142 114 148 327 231 346 103 180 287 184 157 169 292 280 285 265 285 155 141 138 114 92 67 61
190 191 195 184 174 172 158 111 208 200 164 149 66 99 253 212 144 151 174 186 189 181 157 135 355 345 34 59 121 341 21 326 100 24 57 265 252 297 241 218 195 175 132 74 83
183 185 190 178 172 174 106 237 213 193 133 144 144 152 166 208 134 152 181 208 179 150 125 185 96 354 261 279 227 144 210 18 1 83 308 292 291 241 246 237 228 206 186 172 155
183 163 179 169 168 171 176 224 210 201 172 155 167 132 172 165 162 175 196 5 159 166 298 172 106 275 11 223 184 80 31 112 138 114 152 302 263 209 228 205 206 214 206 192 190
169 141 163 164 152 186 184 190 158 174 174 138 118 125 154 163 145 172 170 100 179 148 149 302 126 127 224 279 30 180 188 130 118 289 297 138 277 257 98 196 198 208 206 205 198
163 110 166 173 168 225 3 342 199 146 196 161 171 152 153 150 117 149 143 68 83 77 140 209 325 58 348 349 21 248 203 160 122 92 215 151 259 4 329 135 199 197 200 205 201
152 129 159 206 206 153 149 204 189 210 193 169 142 119 109 107 25 148 127 99 100 61 96 85 103 185 183 175 136 176 181 182 133 129 210 234 292 289 260 239 212 208 203 206 206
176 192 176 176 218 190 166 156 142 168 226 179 351 192 156 117 76 132 115 122 78 160 56 103 175 19 295 279 218 212 183 180 202 199 171 226 242 240 247 236 231 221 209 208 212
170 153 160 182 191 174 185 209 167 177 151 225 202 174 174 158 183 185 141 189 173 181 158 94 160 76 297 322 351 269 229 220 213 236 274 271 284 270 270 253 251 236 211 212 220
191 182 165 163 166 182 197 182 192 137 218 206 165 131 145 177 110 115 109 128 133 136 146 129 125 90 274 344 3 314 223 185 201 204 168 194 224 252 294 293 326 234 219 220 228